Time,TemperatureF,DewpointF,PressureIn,WindDirection,WindDirectionDegrees,WindSpeedMPH,WindSpeedGustMPH,Humidity,HourlyPrecipIn,Conditions,Clouds,dailyrainin,SoftwareType,DateUTC
2013-05-19 00:00:00,59.5,33.8,30.30,SE,136,0.0,8.1,38,0.00,,---,0.00,VWS V14.01,2013-05-19 04:00:00,
2013-05-19 00:01:00,59.5,33.8,30.30,SSE,168,5.4,8.1,38,0.00,,---,0.00,VWS V14.01,2013-05-19 04:01:00,
2013-05-19 00:02:00,59.5,33.8,30.30,SE,132,3.1,8.1,38,0.00,,---,0.00,VWS V14.01,2013-05-19 04:02:00,
2013-05-19 00:03:00,59.5,33.8,30.30,ESE,106,2.7,8.1,38,0.00,,---,0.00,VWS V14.01,2013-05-19 04:03:00,
2013-05-19 00:04:00,59.5,33.8,30.30,South,180,2.7,8.1,38,0.00,,---,0.00,VWS V14.01,2013-05-19 04:04:00,
2013-05-19 00:05:00,59.5,33.8,30.30,East,93,0.0,8.1,38,0.00,,---,0.00,VWS V14.01,2013-05-19 04:05:00,
2013-05-19 00:10:00,59.4,34.3,30.30,SSW,195,4.9,8.1,39,0.00,,---,0.00,VWS V14.01,2013-05-19 04:10:00,
2013-05-19 00:15:00,59.4,34.3,30.30,ESE,123,4.0,8.1,39,0.00,,---,0.00,VWS V14.01,2013-05-19 04:15:00,
2013-05-19 00:20:00,59.4,34.3,30.30,SW,223,2.7,8.1,39,0.00,,---,0.00,VWS V14.01,2013-05-19 04:20:00,
2013-05-19 00:25:00,59.2,34.2,30.30,South,187,3.6,8.1,39,0.00,,---,0.00,VWS V14.01,2013-05-19 04:25:00,
2013-05-19 00:30:00,59.2,34.2,30.30,SE,124,4.9,8.1,39,0.00,,---,0.00,VWS V14.01,2013-05-19 04:30:00,
2013-05-19 00:35:00,59.4,34.3,30.30,SE,138,0.0,8.1,39,0.00,,---,0.00,VWS V14.01,2013-05-19 04:35:00,
2013-05-19 00:40:00,59.2,34.2,30.30,SSE,160,0.0,8.1,39,0.00,,---,0.00,VWS V14.01,2013-05-19 04:40:00,
2013-05-19 00:45:00,59.2,34.2,30.30,ESE,107,0.0,8.1,39,0.00,,---,0.00,VWS V14.01,2013-05-19 04:45:00,
2013-05-19 00:50:00,59.2,34.2,30.30,ESE,111,0.0,8.1,39,0.00,,---,0.00,VWS V14.01,2013-05-19 04:50:00,
2013-05-19 00:55:00,59.2,34.2,30.30,South,190,0.0,8.1,39,0.00,,---,0.00,VWS V14.01,2013-05-19 04:55:00,
2013-05-19 01:00:00,59.0,34.0,30.30,ENE,69,0.0,0.0,39,0.00,,---,0.00,VWS V14.01,2013-05-19 05:00:00,
2013-05-19 01:05:00,59.0,34.0,30.30,SE,130,0.0,4.9,39,0.00,,---,0.00,VWS V14.01,2013-05-19 05:05:00,
2013-05-19 01:10:00,59.0,34.0,30.30,South,191,3.1,4.9,39,0.00,,---,0.00,VWS V14.01,2013-05-19 05:10:00,
2013-05-19 01:15:00,59.0,34.0,30.30,East,101,0.0,4.9,39,0.00,,---,0.00,VWS V14.01,2013-05-19 05:15:00,
2013-05-19 01:20:00,58.8,34.5,30.30,East,101,0.0,4.9,40,0.00,,---,0.00,VWS V14.01,2013-05-19 05:20:00,
2013-05-19 01:25:00,58.6,34.4,30.30,East,85,0.0,4.9,40,0.00,,---,0.00,VWS V14.01,2013-05-19 05:25:00,
2013-05-19 01:30:00,58.6,34.4,30.30,SE,126,0.0,4.9,40,0.00,,---,0.00,VWS V14.01,2013-05-19 05:30:00,
2013-05-19 01:35:00,58.6,34.4,30.27,East,100,2.7,4.9,40,0.00,,---,0.00,VWS V14.01,2013-05-19 05:35:00,
2013-05-19 01:40:00,58.8,34.5,30.27,SE,132,0.0,4.9,40,0.00,,---,0.00,VWS V14.01,2013-05-19 05:40:00,
2013-05-19 01:45:00,58.8,34.5,30.27,SSE,157,0.0,4.9,40,0.00,,---,0.00,VWS V14.01,2013-05-19 05:45:00,
2013-05-19 01:50:00,58.8,34.5,30.27,ESE,102,0.0,4.9,40,0.00,,---,0.00,VWS V14.01,2013-05-19 05:50:00,
2013-05-19 01:56:00,58.6,34.4,30.27,East,100,0.0,4.9,40,0.00,,---,0.00,VWS V14.01,2013-05-19 05:56:00,
2013-05-19 02:01:00,58.6,34.4,30.27,East,100,0.0,0.0,40,0.00,,---,0.00,VWS V14.01,2013-05-19 06:01:00,
2013-05-19 02:06:00,58.5,34.2,30.27,East,100,0.0,0.0,40,0.00,,---,0.00,VWS V14.01,2013-05-19 06:06:00,
2013-05-19 02:11:00,58.3,34.1,30.27,East,100,0.0,0.0,40,0.00,,---,0.00,VWS V14.01,2013-05-19 06:11:00,
2013-05-19 02:16:00,58.1,33.9,30.27,East,100,0.0,0.0,40,0.00,,---,0.00,VWS V14.01,2013-05-19 06:16:00,
2013-05-19 02:21:00,57.7,33.6,30.27,East,100,0.0,0.0,40,0.00,,---,0.00,VWS V14.01,2013-05-19 06:21:00,
2013-05-19 02:26:00,57.4,33.9,30.27,East,100,0.0,0.0,41,0.00,,---,0.00,VWS V14.01,2013-05-19 06:26:00,
2013-05-19 02:31:00,57.2,33.8,30.27,East,100,0.0,0.0,41,0.00,,---,0.00,VWS V14.01,2013-05-19 06:31:00,
2013-05-19 02:36:00,56.8,34.1,30.27,East,100,0.0,0.0,42,0.00,,---,0.00,VWS V14.01,2013-05-19 06:36:00,
2013-05-19 02:41:00,56.7,34.5,30.27,East,100,0.0,0.0,43,0.00,,---,0.00,VWS V14.01,2013-05-19 06:41:00,
2013-05-19 02:46:00,56.5,34.4,30.27,East,100,0.0,0.0,43,0.00,,---,0.00,VWS V14.01,2013-05-19 06:46:00,
2013-05-19 02:51:00,56.3,34.2,30.24,East,100,0.0,0.0,43,0.00,,---,0.00,VWS V14.01,2013-05-19 06:51:00,
2013-05-19 02:56:00,56.1,34.1,30.24,East,100,0.0,0.0,43,0.00,,---,0.00,VWS V14.01,2013-05-19 06:56:00,
2013-05-19 03:01:00,55.9,33.9,30.24,East,100,0.0,0.0,43,0.00,,---,0.00,VWS V14.01,2013-05-19 07:01:00,
2013-05-19 03:06:00,55.8,34.4,30.24,East,100,0.0,0.0,44,0.00,,---,0.00,VWS V14.01,2013-05-19 07:06:00,
2013-05-19 03:11:00,55.4,35.2,30.24,East,100,0.0,0.0,46,0.00,,---,0.00,VWS V14.01,2013-05-19 07:11:00,
2013-05-19 03:16:00,55.2,35.6,30.24,East,100,0.0,0.0,48,0.00,,---,0.00,VWS V14.01,2013-05-19 07:16:00,
2013-05-19 03:21:00,55.0,35.5,30.24,East,100,0.0,0.0,48,0.00,,---,0.00,VWS V14.01,2013-05-19 07:21:00,
2013-05-19 03:26:00,55.0,35.5,30.24,East,100,0.0,0.0,48,0.00,,---,0.00,VWS V14.01,2013-05-19 07:26:00,
2013-05-19 03:31:00,55.0,35.5,30.24,East,100,0.0,0.0,48,0.00,,---,0.00,VWS V14.01,2013-05-19 07:31:00,
2013-05-19 03:36:00,55.0,35.5,30.24,East,100,0.0,0.0,48,0.00,,---,0.00,VWS V14.01,2013-05-19 07:36:00,
2013-05-19 03:41:00,54.9,35.3,30.24,East,100,0.0,0.0,48,0.00,,---,0.00,VWS V14.01,2013-05-19 07:41:00,
2013-05-19 03:46:00,54.9,35.3,30.24,East,100,0.0,0.0,48,0.00,,---,0.00,VWS V14.01,2013-05-19 07:46:00,
2013-05-19 03:51:00,54.7,35.1,30.24,East,100,0.0,0.0,48,0.00,,---,0.00,VWS V14.01,2013-05-19 07:51:00,
2013-05-19 03:56:00,54.5,35.0,30.24,East,100,0.0,0.0,48,0.00,,---,0.00,VWS V14.01,2013-05-19 07:56:00,
2013-05-19 04:01:00,54.3,35.4,30.24,East,100,0.0,0.0,49,0.00,,---,0.00,VWS V14.01,2013-05-19 08:01:00,
2013-05-19 04:06:00,54.3,35.4,30.24,East,100,0.0,0.0,49,0.00,,---,0.00,VWS V14.01,2013-05-19 08:06:00,
2013-05-19 04:11:00,54.1,35.2,30.24,East,100,0.0,0.0,49,0.00,,---,0.00,VWS V14.01,2013-05-19 08:11:00,
2013-05-19 04:16:00,54.0,35.6,30.24,East,100,0.0,0.0,50,0.00,,---,0.00,VWS V14.01,2013-05-19 08:16:00,
2013-05-19 04:21:00,54.0,35.6,30.24,East,100,0.0,0.0,50,0.00,,---,0.00,VWS V14.01,2013-05-19 08:21:00,
2013-05-19 04:26:00,53.8,35.4,30.24,East,100,0.0,0.0,50,0.00,,---,0.00,VWS V14.01,2013-05-19 08:26:00,
2013-05-19 04:31:00,53.6,35.8,30.24,East,100,0.0,0.0,51,0.00,,---,0.00,VWS V14.01,2013-05-19 08:31:00,
2013-05-19 04:36:00,53.4,36.2,30.24,East,100,0.0,0.0,52,0.00,,---,0.00,VWS V14.01,2013-05-19 08:36:00,
2013-05-19 04:41:00,53.4,36.7,30.24,East,100,0.0,0.0,53,0.00,,---,0.00,VWS V14.01,2013-05-19 08:41:00,
2013-05-19 04:46:00,53.2,36.5,30.24,East,100,0.0,0.0,53,0.00,,---,0.00,VWS V14.01,2013-05-19 08:46:00,
2013-05-19 04:51:00,53.2,36.5,30.24,East,100,0.0,0.0,53,0.00,,---,0.00,VWS V14.01,2013-05-19 08:51:00,
2013-05-19 04:56:00,53.1,36.4,30.24,East,100,0.0,0.0,53,0.00,,---,0.00,VWS V14.01,2013-05-19 08:56:00,
2013-05-19 05:01:00,53.1,36.9,30.24,East,100,0.0,0.0,54,0.00,,---,0.00,VWS V14.01,2013-05-19 09:01:00,
2013-05-19 05:06:00,53.1,36.9,30.27,East,100,0.0,0.0,54,0.00,,---,0.00,VWS V14.01,2013-05-19 09:06:00,
2013-05-19 05:11:00,53.1,36.9,30.27,East,100,0.0,0.0,54,0.00,,---,0.00,VWS V14.01,2013-05-19 09:11:00,
2013-05-19 05:16:00,52.9,36.7,30.27,East,100,0.0,0.0,54,0.00,,---,0.00,VWS V14.01,2013-05-19 09:16:00,
2013-05-19 05:22:00,52.7,36.5,30.27,East,100,0.0,0.0,54,0.00,,---,0.00,VWS V14.01,2013-05-19 09:22:00,
2013-05-19 05:27:00,52.7,36.5,30.27,East,100,0.0,0.0,54,0.00,,---,0.00,VWS V14.01,2013-05-19 09:27:00,
2013-05-19 05:32:00,52.7,36.5,30.24,East,100,0.0,0.0,54,0.00,,---,0.00,VWS V14.01,2013-05-19 09:32:00,
2013-05-19 05:37:00,52.7,36.5,30.24,East,100,0.0,0.0,54,0.00,,---,0.00,VWS V14.01,2013-05-19 09:37:00,
2013-05-19 05:42:00,52.5,36.9,30.24,East,100,0.0,0.0,55,0.00,,---,0.00,VWS V14.01,2013-05-19 09:42:00,
2013-05-19 05:47:00,52.5,36.9,30.24,East,100,0.0,0.0,55,0.00,,---,0.00,VWS V14.01,2013-05-19 09:47:00,
2013-05-19 05:52:00,52.3,36.7,30.24,East,100,0.0,0.0,55,0.00,,---,0.00,VWS V14.01,2013-05-19 09:52:00,
2013-05-19 05:57:00,52.3,36.7,30.24,East,100,0.0,0.0,55,0.00,,---,0.00,VWS V14.01,2013-05-19 09:57:00,
2013-05-19 06:02:00,52.3,36.7,30.24,East,100,0.0,0.0,55,0.00,,---,0.00,VWS V14.01,2013-05-19 10:02:00,
2013-05-19 06:07:00,52.3,37.2,30.24,East,100,0.0,0.0,56,0.00,,---,0.00,VWS V14.01,2013-05-19 10:07:00,
2013-05-19 06:12:00,52.3,37.2,30.24,East,100,0.0,0.0,56,0.00,,---,0.00,VWS V14.01,2013-05-19 10:12:00,
2013-05-19 06:17:00,52.3,37.2,30.27,East,100,0.0,0.0,56,0.00,,---,0.00,VWS V14.01,2013-05-19 10:17:00,
2013-05-19 06:22:00,52.3,37.2,30.27,East,100,0.0,0.0,56,0.00,,---,0.00,VWS V14.01,2013-05-19 10:22:00,
2013-05-19 06:27:00,52.3,37.2,30.27,East,100,0.0,0.0,56,0.00,,---,0.00,VWS V14.01,2013-05-19 10:27:00,
2013-05-19 06:32:00,52.3,37.2,30.27,East,100,0.0,0.0,56,0.00,,---,0.00,VWS V14.01,2013-05-19 10:32:00,
2013-05-19 06:37:00,52.5,37.4,30.27,East,100,0.0,0.0,56,0.00,,---,0.00,VWS V14.01,2013-05-19 10:37:00,
2013-05-19 06:42:00,52.5,37.8,30.27,East,100,0.0,0.0,57,0.00,,---,0.00,VWS V14.01,2013-05-19 10:42:00,
2013-05-19 06:47:00,52.5,38.3,30.27,East,100,0.0,0.0,58,0.00,,---,0.00,VWS V14.01,2013-05-19 10:47:00,
2013-05-19 06:52:00,52.7,38.5,30.27,East,100,0.0,0.0,58,0.00,,---,0.00,VWS V14.01,2013-05-19 10:52:00,
2013-05-19 06:57:00,52.9,38.7,30.27,East,100,0.0,0.0,58,0.00,,---,0.00,VWS V14.01,2013-05-19 10:57:00,
2013-05-19 07:02:00,52.9,38.7,30.27,East,100,0.0,0.0,58,0.00,,---,0.00,VWS V14.01,2013-05-19 11:02:00,
2013-05-19 07:07:00,53.1,39.3,30.27,East,100,0.0,0.0,59,0.00,,---,0.00,VWS V14.01,2013-05-19 11:07:00,
2013-05-19 07:12:00,53.1,39.3,30.27,East,100,0.0,0.0,59,0.00,,---,0.00,VWS V14.01,2013-05-19 11:12:00,
2013-05-19 07:17:00,53.2,39.5,30.27,East,100,0.0,0.0,59,0.00,,---,0.00,VWS V14.01,2013-05-19 11:17:00,
2013-05-19 07:22:00,53.6,40.3,30.27,East,100,0.0,0.0,60,0.00,,---,0.00,VWS V14.01,2013-05-19 11:22:00,
2013-05-19 07:27:00,54.3,41.4,30.27,East,100,0.0,0.0,62,0.00,,---,0.00,VWS V14.01,2013-05-19 11:27:00,
2013-05-19 07:32:00,55.4,42.4,30.27,East,100,0.0,0.0,62,0.00,,---,0.00,VWS V14.01,2013-05-19 11:32:00,
2013-05-19 07:37:00,56.3,42.3,30.27,East,101,0.0,0.0,59,0.00,,---,0.00,VWS V14.01,2013-05-19 11:37:00,
2013-05-19 07:42:00,57.2,41.2,30.27,East,101,0.0,0.0,55,0.00,,---,0.00,VWS V14.01,2013-05-19 11:42:00,
2013-05-19 07:47:00,57.9,40.9,30.27,East,101,0.0,0.0,53,0.00,,---,0.00,VWS V14.01,2013-05-19 11:47:00,
2013-05-19 07:52:00,58.5,40.3,30.27,ESE,102,0.0,0.0,51,0.00,,---,0.00,VWS V14.01,2013-05-19 11:52:00,
2013-05-19 07:57:00,59.0,39.1,30.27,East,95,3.1,4.0,48,0.00,,---,0.00,VWS V14.01,2013-05-19 11:57:00,
2013-05-19 08:02:00,59.7,39.8,30.27,East,95,0.0,0.0,48,0.00,,---,0.00,VWS V14.01,2013-05-19 12:02:00,
2013-05-19 08:07:00,60.4,39.2,30.27,East,95,0.0,0.0,45,0.00,,---,0.00,VWS V14.01,2013-05-19 12:07:00,
2013-05-19 08:12:00,61.0,39.1,30.27,East,95,0.0,0.0,44,0.00,,---,0.00,VWS V14.01,2013-05-19 12:12:00,
2013-05-19 08:17:00,61.5,39.6,30.27,East,95,0.0,0.0,44,0.00,,---,0.00,VWS V14.01,2013-05-19 12:17:00,
2013-05-19 08:22:00,62.1,38.8,30.27,East,95,0.0,0.0,42,0.00,,---,0.00,VWS V14.01,2013-05-19 12:22:00,
2013-05-19 08:27:00,62.4,39.1,30.27,ENE,78,4.0,4.0,42,0.00,,---,0.00,VWS V14.01,2013-05-19 12:27:00,
2013-05-19 08:32:00,63.0,38.9,30.24,SSE,149,0.0,4.9,41,0.00,,---,0.00,VWS V14.01,2013-05-19 12:32:00,
2013-05-19 08:37:00,63.5,39.4,30.24,South,169,0.0,4.9,41,0.00,,---,0.00,VWS V14.01,2013-05-19 12:37:00,
2013-05-19 08:43:00,64.4,40.2,30.24,East,96,0.0,4.9,41,0.00,,---,0.00,VWS V14.01,2013-05-19 12:43:00,
2013-05-19 08:48:00,64.8,39.9,30.27,SSE,157,0.0,6.3,40,0.00,,---,0.00,VWS V14.01,2013-05-19 12:48:00,
2013-05-19 08:53:00,65.3,39.7,30.27,South,169,0.0,6.3,39,0.00,,---,0.00,VWS V14.01,2013-05-19 12:53:00,
2013-05-19 08:58:00,66.0,40.3,30.27,South,179,0.0,6.3,39,0.00,,---,0.00,VWS V14.01,2013-05-19 12:58:00,
2013-05-19 09:03:00,66.7,40.2,30.27,SSW,205,0.0,0.0,38,0.00,,---,0.00,VWS V14.01,2013-05-19 13:03:00,
2013-05-19 09:08:00,67.3,40.0,30.27,South,191,0.0,0.0,37,0.00,,---,0.00,VWS V14.01,2013-05-19 13:08:00,
2013-05-19 09:13:00,68.0,40.6,30.27,South,191,0.0,0.0,37,0.00,,---,0.00,VWS V14.01,2013-05-19 13:13:00,
2013-05-19 09:18:00,68.5,41.1,30.27,ESE,106,0.0,0.0,37,0.00,,---,0.00,VWS V14.01,2013-05-19 13:18:00,
2013-05-19 09:23:00,68.9,41.4,30.27,ESE,114,0.0,0.0,37,0.00,,---,0.00,VWS V14.01,2013-05-19 13:23:00,
2013-05-19 09:28:00,69.6,42.0,30.27,ESE,114,0.0,0.0,37,0.00,,---,0.00,VWS V14.01,2013-05-19 13:28:00,
2013-05-19 09:33:00,70.0,41.6,30.27,South,189,0.0,4.0,36,0.00,,---,0.00,VWS V14.01,2013-05-19 13:33:00,
2013-05-19 09:38:00,70.3,42.7,30.27,South,191,0.0,4.0,37,0.00,,---,0.00,VWS V14.01,2013-05-19 13:38:00,
2013-05-19 09:43:00,70.9,42.4,30.27,SE,133,0.0,4.0,36,0.00,,---,0.00,VWS V14.01,2013-05-19 13:43:00,
2013-05-19 09:48:00,71.2,42.7,30.27,SE,133,0.0,4.0,36,0.00,,---,0.00,VWS V14.01,2013-05-19 13:48:00,
2013-05-19 09:53:00,72.1,43.5,30.27,SE,124,0.0,4.0,36,0.00,,---,0.00,VWS V14.01,2013-05-19 13:53:00,
2013-05-19 09:58:00,72.9,44.1,30.27,ESE,118,0.0,4.0,36,0.00,,---,0.00,VWS V14.01,2013-05-19 13:58:00,
2013-05-19 10:03:00,72.9,43.3,30.27,ESE,121,0.0,0.0,35,0.00,,---,0.00,VWS V14.01,2013-05-19 14:03:00,
2013-05-19 10:08:00,73.8,44.1,30.27,ESE,121,0.0,0.0,35,0.00,,---,0.00,VWS V14.01,2013-05-19 14:08:00,
2013-05-19 10:13:00,74.5,44.7,30.27,ESE,121,0.0,0.0,35,0.00,,---,0.00,VWS V14.01,2013-05-19 14:13:00,
2013-05-19 10:18:00,74.7,44.1,30.27,ESE,111,0.0,4.9,33,0.00,,---,0.00,VWS V14.01,2013-05-19 14:18:00,
2013-05-19 10:23:00,75.0,45.2,30.27,South,169,0.0,4.9,35,0.00,,---,0.00,VWS V14.01,2013-05-19 14:23:00,
2013-05-19 10:28:00,75.4,44.7,30.27,SSW,199,0.0,4.9,33,0.00,,---,0.00,VWS V14.01,2013-05-19 14:28:00,
2013-05-19 10:33:00,75.7,45.0,30.24,SSW,198,0.0,4.9,33,0.00,,---,0.00,VWS V14.01,2013-05-19 14:33:00,
2013-05-19 10:38:00,76.3,45.5,30.24,SSW,200,0.0,4.9,33,0.00,,---,0.00,VWS V14.01,2013-05-19 14:38:00,
2013-05-19 10:43:00,76.6,45.8,30.24,SSW,194,0.0,4.9,33,0.00,,---,0.00,VWS V14.01,2013-05-19 14:43:00,
2013-05-19 10:48:00,76.6,45.8,30.24,South,190,0.0,4.9,33,0.00,,---,0.00,VWS V14.01,2013-05-19 14:48:00,
2013-05-19 10:53:00,77.4,46.4,30.24,SSE,152,0.0,4.9,33,0.00,,---,0.00,VWS V14.01,2013-05-19 14:53:00,
2013-05-19 10:58:00,77.7,46.7,30.24,SSE,152,0.0,4.9,33,0.00,,---,0.00,VWS V14.01,2013-05-19 14:58:00,
2013-05-19 11:03:00,78.3,47.2,30.24,South,190,0.0,0.0,33,0.00,,---,0.00,VWS V14.01,2013-05-19 15:03:00,
2013-05-19 11:08:00,78.4,47.4,30.24,SSW,208,2.7,4.9,33,0.00,,---,0.00,VWS V14.01,2013-05-19 15:08:00,
2013-05-19 11:13:00,78.8,46.8,30.24,SSE,161,4.0,4.9,32,0.00,,---,0.00,VWS V14.01,2013-05-19 15:13:00,
2013-05-19 11:18:00,79.0,47.8,30.24,South,183,0.0,4.9,33,0.00,,---,0.00,VWS V14.01,2013-05-19 15:18:00,
2013-05-19 11:23:00,79.3,47.3,30.24,South,185,0.0,4.9,32,0.00,,---,0.00,VWS V14.01,2013-05-19 15:23:00,
2013-05-19 11:28:00,79.7,47.6,30.24,SE,132,2.7,4.9,32,0.00,,---,0.00,VWS V14.01,2013-05-19 15:28:00,
2013-05-19 11:33:00,79.9,48.6,30.24,SSE,158,2.7,4.9,33,0.00,,---,0.00,VWS V14.01,2013-05-19 15:33:00,
2013-05-19 11:38:00,79.9,47.8,30.24,South,190,0.0,4.9,32,0.00,,---,0.00,VWS V14.01,2013-05-19 15:38:00,
2013-05-19 11:43:00,80.1,47.9,30.24,South,191,0.0,4.9,32,0.00,,---,0.00,VWS V14.01,2013-05-19 15:43:00,
2013-05-19 11:48:00,80.4,48.2,30.24,SSE,166,0.0,4.9,32,0.00,,---,0.00,VWS V14.01,2013-05-19 15:48:00,
2013-05-19 11:53:00,80.6,48.4,30.24,SSW,210,0.0,4.9,32,0.00,,---,0.00,VWS V14.01,2013-05-19 15:53:00,
2013-05-19 11:58:00,80.2,48.1,30.24,SSE,148,3.1,4.9,32,0.00,,---,0.00,VWS V14.01,2013-05-19 15:58:00,
2013-05-19 12:03:00,80.6,49.2,30.24,SSW,211,0.0,3.1,33,0.00,,---,0.00,VWS V14.01,2013-05-19 16:03:00,
2013-05-19 12:08:00,81.1,47.9,30.24,ESE,103,4.9,5.4,31,0.00,,---,0.00,VWS V14.01,2013-05-19 16:08:00,
2013-05-19 12:14:00,81.3,47.2,30.24,SSW,193,0.0,5.4,30,0.00,,---,0.00,VWS V14.01,2013-05-19 16:14:00,
2013-05-19 12:19:00,81.5,48.3,30.27,SW,225,0.0,5.4,31,0.00,,---,0.00,VWS V14.01,2013-05-19 16:19:00,
2013-05-19 12:24:00,81.3,48.1,30.27,SSW,193,0.0,5.4,31,0.00,,---,0.00,VWS V14.01,2013-05-19 16:24:00,
2013-05-19 12:29:00,81.5,48.3,30.27,SE,127,0.0,5.4,31,0.00,,---,0.00,VWS V14.01,2013-05-19 16:29:00,
2013-05-19 12:34:00,81.7,47.5,30.27,South,173,0.0,5.4,30,0.00,,---,0.00,VWS V14.01,2013-05-19 16:34:00,
2013-05-19 12:39:00,82.0,45.8,30.27,SSW,202,3.1,5.4,28,0.00,,---,0.00,VWS V14.01,2013-05-19 16:39:00,
2013-05-19 12:44:00,81.7,46.5,30.27,East,94,0.0,5.4,29,0.00,,---,0.00,VWS V14.01,2013-05-19 16:44:00,
2013-05-19 12:49:00,82.0,46.8,30.27,ESE,117,0.0,5.4,29,0.00,,---,0.00,VWS V14.01,2013-05-19 16:49:00,
2013-05-19 12:54:00,82.4,48.1,30.27,SW,227,2.7,5.8,30,0.00,,---,0.00,VWS V14.01,2013-05-19 16:54:00,
2013-05-19 12:59:00,82.6,45.2,30.27,ESE,120,2.2,5.8,27,0.00,,---,0.00,VWS V14.01,2013-05-19 16:59:00,
2013-05-19 13:04:00,82.8,45.4,30.24,North,357,0.0,0.0,27,0.00,,---,0.00,VWS V14.01,2013-05-19 17:04:00,
2013-05-19 13:09:00,83.1,44.6,30.24,SSW,200,0.0,4.9,26,0.00,,---,0.00,VWS V14.01,2013-05-19 17:09:00,
2013-05-19 13:14:00,83.3,44.8,30.24,SW,218,0.0,4.9,26,0.00,,---,0.00,VWS V14.01,2013-05-19 17:14:00,
2013-05-19 13:19:00,83.7,44.0,30.24,WSW,249,0.0,4.9,25,0.00,,---,0.00,VWS V14.01,2013-05-19 17:19:00,
2013-05-19 13:24:00,83.5,43.8,30.24,SSW,197,3.1,4.9,25,0.00,,---,0.00,VWS V14.01,2013-05-19 17:24:00,
2013-05-19 13:29:00,83.8,46.3,30.24,WSW,239,2.2,4.9,27,0.00,,---,0.00,VWS V14.01,2013-05-19 17:29:00,
2013-05-19 13:34:00,84.2,45.5,30.24,WSW,246,0.0,4.9,26,0.00,,---,0.00,VWS V14.01,2013-05-19 17:34:00,
2013-05-19 13:39:00,84.4,43.4,30.24,SSE,165,0.0,4.9,24,0.00,,---,0.00,VWS V14.01,2013-05-19 17:39:00,
2013-05-19 13:44:00,83.7,42.8,30.24,South,188,2.2,4.9,24,0.00,,---,0.00,VWS V14.01,2013-05-19 17:44:00,
2013-05-19 13:49:00,82.6,43.1,30.24,ENE,63,2.7,5.4,25,0.00,,---,0.00,VWS V14.01,2013-05-19 17:49:00,
2013-05-19 13:54:00,82.6,45.2,30.24,SSE,153,0.0,5.4,27,0.00,,---,0.00,VWS V14.01,2013-05-19 17:54:00,
2013-05-19 13:59:00,82.8,43.2,30.24,WNW,294,0.0,5.4,25,0.00,,---,0.00,VWS V14.01,2013-05-19 17:59:00,
2013-05-19 14:04:00,82.8,42.1,30.24,South,180,0.0,0.0,24,0.00,,---,0.00,VWS V14.01,2013-05-19 18:04:00,
2013-05-19 14:09:00,82.8,43.2,30.24,South,174,0.0,0.0,25,0.00,,---,0.00,VWS V14.01,2013-05-19 18:09:00,
2013-05-19 14:14:00,83.1,44.6,30.24,South,185,0.0,0.0,26,0.00,,---,0.00,VWS V14.01,2013-05-19 18:14:00,
2013-05-19 14:19:00,83.8,43.0,30.24,SSW,207,0.0,5.8,24,0.00,,---,0.00,VWS V14.01,2013-05-19 18:19:00,
2013-05-19 14:24:00,83.3,42.5,30.24,SE,128,0.0,5.8,24,0.00,,---,0.00,VWS V14.01,2013-05-19 18:24:00,
2013-05-19 14:29:00,83.7,44.0,30.24,SW,215,0.0,5.8,25,0.00,,---,0.00,VWS V14.01,2013-05-19 18:29:00,
2013-05-19 14:34:00,83.5,42.7,30.24,SE,126,0.0,5.8,24,0.00,,---,0.00,VWS V14.01,2013-05-19 18:34:00,
2013-05-19 14:39:00,83.5,42.7,30.24,North,0,0.0,5.8,24,0.00,,---,0.00,VWS V14.01,2013-05-19 18:39:00,
2013-05-19 14:44:00,83.5,42.7,30.24,SSW,195,0.0,5.8,24,0.00,,---,0.00,VWS V14.01,2013-05-19 18:44:00,
2013-05-19 14:49:00,83.5,41.5,30.24,North,357,2.2,5.8,23,0.00,,---,0.00,VWS V14.01,2013-05-19 18:49:00,
2013-05-19 14:54:00,83.1,42.4,30.24,SSW,196,0.0,5.8,24,0.00,,---,0.00,VWS V14.01,2013-05-19 18:54:00,
2013-05-19 14:59:00,83.5,42.7,30.24,SE,127,3.6,5.8,24,0.00,,---,0.00,VWS V14.01,2013-05-19 18:59:00,
2013-05-19 15:04:00,83.8,43.0,30.22,SW,220,0.0,3.1,24,0.00,,---,0.00,VWS V14.01,2013-05-19 19:04:00,
2013-05-19 15:09:00,83.5,42.7,30.22,SSE,159,0.0,3.1,24,0.00,,---,0.00,VWS V14.01,2013-05-19 19:09:00,
2013-05-19 15:14:00,82.9,42.2,30.22,SSW,200,0.0,3.1,24,0.00,,---,0.00,VWS V14.01,2013-05-19 19:14:00,
2013-05-19 15:19:00,83.1,42.4,30.22,SSE,158,3.1,3.1,24,0.00,,---,0.00,VWS V14.01,2013-05-19 19:19:00,
2013-05-19 15:24:00,83.8,43.0,30.22,SSW,194,3.6,5.4,24,0.00,,---,0.00,VWS V14.01,2013-05-19 19:24:00,
2013-05-19 15:30:00,84.9,41.4,30.22,North,353,2.2,5.4,22,0.00,,---,0.00,VWS V14.01,2013-05-19 19:30:00,
2013-05-19 15:35:00,84.7,41.2,30.22,SE,135,0.0,5.4,22,0.00,,---,0.00,VWS V14.01,2013-05-19 19:35:00,
2013-05-19 15:40:00,85.1,41.5,30.22,SSW,198,0.0,5.4,22,0.00,,---,0.00,VWS V14.01,2013-05-19 19:40:00,
2013-05-19 15:45:00,85.5,43.1,30.22,ESE,114,0.0,5.4,23,0.00,,---,0.00,VWS V14.01,2013-05-19 19:45:00,
2013-05-19 15:50:00,85.8,43.4,30.22,SE,128,3.6,5.4,23,0.00,,---,0.00,VWS V14.01,2013-05-19 19:50:00,
2013-05-19 15:55:00,85.1,42.8,30.22,SSW,205,0.0,5.4,23,0.00,,---,0.00,VWS V14.01,2013-05-19 19:55:00,
2013-05-19 16:00:00,84.2,43.3,30.22,SSE,166,0.0,5.4,24,0.00,,---,0.00,VWS V14.01,2013-05-19 20:00:00,
2013-05-19 16:05:00,84.2,45.5,30.22,SE,125,0.0,0.0,26,0.00,,---,0.00,VWS V14.01,2013-05-19 20:05:00,
2013-05-19 16:10:00,84.0,45.4,30.22,ESE,102,0.0,3.6,26,0.00,,---,0.00,VWS V14.01,2013-05-19 20:10:00,
2013-05-19 16:15:00,83.1,44.6,30.22,SSW,196,0.0,4.9,26,0.00,,---,0.00,VWS V14.01,2013-05-19 20:15:00,
2013-05-19 16:20:00,82.6,46.3,30.22,East,101,3.1,4.9,28,0.00,,---,0.00,VWS V14.01,2013-05-19 20:20:00,
2013-05-19 16:25:00,82.4,46.1,30.22,South,185,0.0,4.9,28,0.00,,---,0.00,VWS V14.01,2013-05-19 20:25:00,
2013-05-19 16:30:00,82.8,49.3,30.22,SSE,162,0.0,4.9,31,0.00,,---,0.00,VWS V14.01,2013-05-19 20:30:00,
2013-05-19 16:35:00,83.1,46.8,30.22,SSW,201,0.0,6.7,28,0.00,,---,0.00,VWS V14.01,2013-05-19 20:35:00,
2013-05-19 16:40:00,82.9,46.6,30.22,SSW,204,0.0,6.7,28,0.00,,---,0.00,VWS V14.01,2013-05-19 20:40:00,
2013-05-19 16:45:00,83.5,47.1,30.22,SE,145,5.4,6.7,28,0.00,,---,0.00,VWS V14.01,2013-05-19 20:45:00,
2013-05-19 16:50:00,83.7,45.1,30.22,SSE,162,0.0,6.7,26,0.00,,---,0.00,VWS V14.01,2013-05-19 20:50:00,
2013-05-19 16:55:00,83.7,47.2,30.22,ESE,111,0.0,7.2,28,0.00,,---,0.00,VWS V14.01,2013-05-19 20:55:00,
2013-05-19 17:00:00,83.1,44.6,30.22,SSW,205,4.0,7.2,26,0.00,,---,0.00,VWS V14.01,2013-05-19 21:00:00,
2013-05-19 17:05:00,82.8,47.4,30.19,SE,133,0.0,6.3,29,0.00,,---,0.00,VWS V14.01,2013-05-19 21:05:00,
2013-05-19 17:10:00,82.9,47.6,30.19,SSE,168,0.0,6.3,29,0.00,,---,0.00,VWS V14.01,2013-05-19 21:10:00,
2013-05-19 17:15:00,82.8,46.4,30.19,WSW,239,0.0,6.3,28,0.00,,---,0.00,VWS V14.01,2013-05-19 21:15:00,
2013-05-19 17:20:00,82.6,47.3,30.19,SE,135,3.1,6.3,29,0.00,,---,0.00,VWS V14.01,2013-05-19 21:20:00,
2013-05-19 17:25:00,82.2,47.9,30.19,South,190,0.0,6.3,30,0.00,,---,0.00,VWS V14.01,2013-05-19 21:25:00,
2013-05-19 17:30:00,82.2,48.9,30.19,SSW,198,0.0,6.3,31,0.00,,---,0.00,VWS V14.01,2013-05-19 21:30:00,
2013-05-19 17:35:00,81.9,47.6,30.22,ESE,115,2.7,7.6,30,0.00,,---,0.00,VWS V14.01,2013-05-19 21:35:00,
2013-05-19 17:40:00,81.5,48.3,30.22,ESE,115,2.7,7.6,31,0.00,,---,0.00,VWS V14.01,2013-05-19 21:40:00,
2013-05-19 17:45:00,81.3,48.1,30.22,South,180,3.1,7.6,31,0.00,,---,0.00,VWS V14.01,2013-05-19 21:45:00,
2013-05-19 17:50:00,81.3,49.0,30.22,SSE,160,0.0,7.6,32,0.00,,---,0.00,VWS V14.01,2013-05-19 21:50:00,
2013-05-19 17:55:00,81.1,48.8,30.22,SE,132,3.1,7.6,32,0.00,,---,0.00,VWS V14.01,2013-05-19 21:55:00,
2013-05-19 18:00:00,81.0,48.7,30.22,SSE,159,0.0,0.0,32,0.00,,---,0.00,VWS V14.01,2013-05-19 22:00:00,
2013-05-19 18:05:00,80.8,48.5,30.22,South,181,0.0,5.4,32,0.00,,---,0.00,VWS V14.01,2013-05-19 22:05:00,
2013-05-19 18:10:00,80.4,48.2,30.22,South,175,2.7,5.4,32,0.00,,---,0.00,VWS V14.01,2013-05-19 22:10:00,
2013-05-19 18:15:00,80.1,48.8,30.22,ESE,111,4.9,5.4,33,0.00,,---,0.00,VWS V14.01,2013-05-19 22:15:00,
2013-05-19 18:20:00,79.9,47.8,30.22,South,169,6.3,7.6,32,0.00,,---,0.00,VWS V14.01,2013-05-19 22:20:00,
2013-05-19 18:25:00,79.5,47.4,30.22,SSE,168,3.1,7.6,32,0.00,,---,0.00,VWS V14.01,2013-05-19 22:25:00,
2013-05-19 18:30:00,79.5,47.4,30.22,SE,141,0.0,7.6,32,0.00,,---,0.00,VWS V14.01,2013-05-19 22:30:00,
2013-05-19 18:36:00,79.3,47.3,30.22,SSE,151,4.0,7.6,32,0.00,,---,0.00,VWS V14.01,2013-05-19 22:36:00,
2013-05-19 18:41:00,79.3,48.2,30.22,South,176,0.0,7.6,33,0.00,,---,0.00,VWS V14.01,2013-05-19 22:41:00,
2013-05-19 18:46:00,79.3,47.3,30.22,East,90,2.7,7.6,32,0.00,,---,0.00,VWS V14.01,2013-05-19 22:46:00,
2013-05-19 18:51:00,79.0,47.8,30.22,SE,129,0.0,7.6,33,0.00,,---,0.00,VWS V14.01,2013-05-19 22:51:00,
2013-05-19 18:56:00,79.0,47.8,30.22,ESE,120,0.0,7.6,33,0.00,,---,0.00,VWS V14.01,2013-05-19 22:56:00,
2013-05-19 19:01:00,79.0,47.8,30.22,SSE,150,0.0,0.0,33,0.00,,---,0.00,VWS V14.01,2013-05-19 23:01:00,
2013-05-19 19:06:00,78.6,47.5,30.22,SSW,197,0.0,4.9,33,0.00,,---,0.00,VWS V14.01,2013-05-19 23:06:00,
2013-05-19 19:11:00,78.4,47.4,30.22,SE,132,3.1,4.9,33,0.00,,---,0.00,VWS V14.01,2013-05-19 23:11:00,
2013-05-19 19:16:00,78.3,47.2,30.22,SSE,166,0.0,5.4,33,0.00,,---,0.00,VWS V14.01,2013-05-19 23:16:00,
2013-05-19 19:21:00,78.1,47.0,30.22,SSE,163,3.1,5.4,33,0.00,,---,0.00,VWS V14.01,2013-05-19 23:21:00,
2013-05-19 19:26:00,77.7,47.6,30.22,ESE,115,0.0,5.4,35,0.00,,---,0.00,VWS V14.01,2013-05-19 23:26:00,
2013-05-19 19:31:00,77.5,47.4,30.22,ESE,102,0.0,5.4,35,0.00,,---,0.00,VWS V14.01,2013-05-19 23:31:00,
2013-05-19 19:36:00,77.4,47.3,30.22,ESE,112,0.0,5.8,35,0.00,,---,0.00,VWS V14.01,2013-05-19 23:36:00,
2013-05-19 19:41:00,77.0,47.0,30.22,SSE,166,3.6,5.8,35,0.00,,---,0.00,VWS V14.01,2013-05-19 23:41:00,
2013-05-19 19:46:00,76.5,47.3,30.22,SW,232,4.5,8.3,36,0.00,,---,0.00,VWS V14.01,2013-05-19 23:46:00,
2013-05-19 19:51:00,76.3,47.1,30.22,SE,141,0.0,8.3,36,0.00,,---,0.00,VWS V14.01,2013-05-19 23:51:00,
2013-05-19 19:56:00,76.1,47.8,30.22,SSE,157,2.7,8.3,37,0.00,,---,0.00,VWS V14.01,2013-05-19 23:56:00,
2013-05-19 20:01:00,75.7,47.4,30.22,SE,129,0.0,3.6,37,0.00,,---,0.00,VWS V14.01,2013-05-20 00:01:00,
2013-05-19 20:06:00,75.6,47.3,30.22,SSE,166,0.0,3.6,37,0.00,,---,0.00,VWS V14.01,2013-05-20 00:06:00,
2013-05-19 20:11:00,75.4,47.1,30.22,SSE,162,0.0,3.6,37,0.00,,---,0.00,VWS V14.01,2013-05-20 00:11:00,
2013-05-19 20:16:00,74.8,47.4,30.22,SSW,194,0.0,3.6,38,0.00,,---,0.00,VWS V14.01,2013-05-20 00:16:00,
2013-05-19 20:21:00,74.7,48.0,30.22,SSE,163,0.0,4.0,39,0.00,,---,0.00,VWS V14.01,2013-05-20 00:21:00,
2013-05-19 20:26:00,74.1,47.5,30.22,South,177,0.0,4.0,39,0.00,,---,0.00,VWS V14.01,2013-05-20 00:26:00,
2013-05-19 20:31:00,73.8,47.2,30.22,South,188,0.0,4.0,39,0.00,,---,0.00,VWS V14.01,2013-05-20 00:31:00,
2013-05-19 20:36:00,73.2,47.5,30.22,South,183,4.0,5.8,40,0.00,,---,0.00,VWS V14.01,2013-05-20 00:36:00,
2013-05-19 20:41:00,73.0,48.0,30.22,ESE,118,4.0,5.8,41,0.00,,---,0.00,VWS V14.01,2013-05-20 00:41:00,
2013-05-19 20:46:00,72.7,47.7,30.22,South,170,4.9,5.8,41,0.00,,---,0.00,VWS V14.01,2013-05-20 00:46:00,
2013-05-19 20:51:00,72.3,47.3,30.22,SE,138,0.0,5.8,41,0.00,,---,0.00,VWS V14.01,2013-05-20 00:51:00,
2013-05-19 20:56:00,72.0,47.7,30.22,SSE,147,0.0,5.8,42,0.00,,---,0.00,VWS V14.01,2013-05-20 00:56:00,
2013-05-19 21:01:00,71.6,48.1,30.22,SSW,192,0.0,5.8,43,0.00,,---,0.00,VWS V14.01,2013-05-20 01:01:00,
2013-05-19 21:06:00,71.1,48.9,30.22,SE,142,4.9,7.6,45,0.00,,---,0.00,VWS V14.01,2013-05-20 01:06:00,
2013-05-19 21:11:00,70.5,48.4,30.22,SSE,150,0.0,7.6,45,0.00,,---,0.00,VWS V14.01,2013-05-20 01:11:00,
2013-05-19 21:16:00,70.2,48.7,30.22,SSE,160,0.0,7.6,46,0.00,,---,0.00,VWS V14.01,2013-05-20 01:16:00,
2013-05-19 21:21:00,69.6,48.8,30.22,SE,146,0.0,7.6,48,0.00,,---,0.00,VWS V14.01,2013-05-20 01:21:00,
2013-05-19 21:26:00,69.4,49.2,30.22,SSE,162,0.0,7.6,49,0.00,,---,0.00,VWS V14.01,2013-05-20 01:26:00,
2013-05-19 21:31:00,68.9,48.8,30.22,SSW,200,0.0,7.6,49,0.00,,---,0.00,VWS V14.01,2013-05-20 01:31:00,
2013-05-19 21:37:00,68.7,49.2,30.22,SE,129,0.0,7.6,50,0.00,,---,0.00,VWS V14.01,2013-05-20 01:37:00,
2013-05-19 21:42:00,68.4,49.4,30.22,ESE,113,0.0,7.6,51,0.00,,---,0.00,VWS V14.01,2013-05-20 01:42:00,
2013-05-19 21:47:00,68.2,49.3,30.22,SSE,159,0.0,7.6,51,0.00,,---,0.00,VWS V14.01,2013-05-20 01:47:00,
2013-05-19 21:52:00,68.0,49.1,30.22,SSE,150,0.0,7.6,51,0.00,,---,0.00,VWS V14.01,2013-05-20 01:52:00,
2013-05-19 21:57:00,67.8,50.0,30.22,SSE,158,0.0,7.6,53,0.00,,---,0.00,VWS V14.01,2013-05-20 01:57:00,
2013-05-19 22:02:00,67.5,49.7,30.22,South,182,0.0,0.0,53,0.00,,---,0.00,VWS V14.01,2013-05-20 02:02:00,
2013-05-19 22:07:00,67.3,50.1,30.22,SSE,153,0.0,3.1,54,0.00,,---,0.00,VWS V14.01,2013-05-20 02:07:00,
2013-05-19 22:12:00,67.1,49.9,30.22,SSE,157,0.0,4.5,54,0.00,,---,0.00,VWS V14.01,2013-05-20 02:12:00,
2013-05-19 22:17:00,67.1,49.9,30.22,South,176,0.0,4.5,54,0.00,,---,0.00,VWS V14.01,2013-05-20 02:17:00,
2013-05-19 22:22:00,66.9,50.3,30.22,SE,136,3.6,5.8,55,0.00,,---,0.00,VWS V14.01,2013-05-20 02:22:00,
2013-05-19 22:27:00,66.9,50.3,30.22,SSE,159,2.7,5.8,55,0.00,,---,0.00,VWS V14.01,2013-05-20 02:27:00,
2013-05-19 22:32:00,66.7,50.6,30.22,SSE,160,0.0,5.8,56,0.00,,---,0.00,VWS V14.01,2013-05-20 02:32:00,
2013-05-19 22:37:00,66.6,50.5,30.22,South,177,2.2,5.8,56,0.00,,---,0.00,VWS V14.01,2013-05-20 02:37:00,
2013-05-19 22:42:00,66.6,50.5,30.22,ESE,120,0.0,5.8,56,0.00,,---,0.00,VWS V14.01,2013-05-20 02:42:00,
2013-05-19 22:47:00,66.4,50.3,30.22,SE,127,2.2,5.8,56,0.00,,---,0.00,VWS V14.01,2013-05-20 02:47:00,
2013-05-19 22:52:00,66.4,50.8,30.22,SE,125,0.0,5.8,57,0.00,,---,0.00,VWS V14.01,2013-05-20 02:52:00,
2013-05-19 22:57:00,66.2,50.7,30.22,SE,128,0.0,5.8,57,0.00,,---,0.00,VWS V14.01,2013-05-20 02:57:00,
2013-05-19 23:02:00,66.2,51.2,30.22,South,169,3.6,3.6,58,0.00,,---,0.00,VWS V14.01,2013-05-20 03:02:00,
2013-05-19 23:07:00,66.0,51.0,30.22,SE,143,0.0,3.6,58,0.00,,---,0.00,VWS V14.01,2013-05-20 03:07:00,
2013-05-19 23:12:00,66.0,51.0,30.22,SE,143,0.0,3.6,58,0.00,,---,0.00,VWS V14.01,2013-05-20 03:12:00,
2013-05-19 23:17:00,66.0,51.0,30.22,SE,143,0.0,3.6,58,0.00,,---,0.00,VWS V14.01,2013-05-20 03:17:00,
2013-05-19 23:22:00,66.0,51.0,30.22,SSE,150,0.0,3.6,58,0.00,,---,0.00,VWS V14.01,2013-05-20 03:22:00,
2013-05-19 23:27:00,66.0,51.5,30.22,SSE,152,0.0,3.6,59,0.00,,---,0.00,VWS V14.01,2013-05-20 03:27:00,
2013-05-19 23:32:00,66.0,51.5,30.22,SE,146,0.0,3.6,59,0.00,,---,0.00,VWS V14.01,2013-05-20 03:32:00,
2013-05-19 23:37:00,66.0,51.5,30.22,SE,146,0.0,3.6,59,0.00,,---,0.00,VWS V14.01,2013-05-20 03:37:00,
2013-05-19 23:42:00,65.8,51.3,30.22,SSE,148,0.0,3.6,59,0.00,,---,0.00,VWS V14.01,2013-05-20 03:42:00,
2013-05-19 23:47:00,65.7,51.1,30.22,SE,143,0.0,3.6,59,0.00,,---,0.00,VWS V14.01,2013-05-20 03:47:00,
2013-05-19 23:52:00,65.7,51.1,30.22,SE,143,0.0,3.6,59,0.00,,---,0.00,VWS V14.01,2013-05-20 03:52:00,
2013-05-19 23:57:00,65.5,51.0,30.22,SE,143,0.0,3.6,59,0.00,,---,0.00,VWS V14.01,2013-05-20 03:57:00,